Погода в Ойсхаре

Россия / Чеченская Республика     43°15′46″N   46°14′59″E
темп.,
°C
ветер,
м/с
пор.,
м/с
влажн.,
%
обл.,
%
осадки,
мм/ч
давл.,
гПа
погр.,
м
8 мая, сб
сб800:00+12ююз227819 0.0 101917
03:00+11ю21755 0.0 101914
06:00+14юв11695 0.0 101837
09:00+19всв46555 0.0 1016704
12:00+22всв6744100 0.0 10141056
15:00+22всв774779 0.0 1013762
18:00+17св357380 0.0 1013246
21:00+13зсз018796 0.0 101312
9 мая, вс
вс900:00+12юз01945 0.9 101210
03:00+12всв11923 0.9 101010
06:00+13ююв018879 0.0 100950
09:00+18ссв217234 0.0 1008438
12:00+23ссв32591 0.0 1006896
15:00+25сз565095 0.0 10061832
18:00+12з101590100 1.5 1013989
21:00+8з101592100 4.9 10201034
10 мая, пн
пн1000:00+7з91491100 0.8 10221029
03:00+8зюз81385100 1.1 10221037
06:00+8зюз81276100 0.1 10231089
09:00+9зюз597787 1.6 10221046
12:00+13зсз684697 0.3 10202161
15:00+15з354196 0.3 10201923
18:00+13зюз245590 0.0 1020140
21:00+8ююз347057 0.0 102252
11 мая, вт
вт1100:00+8юз116967 0.0 102112
03:00+7зсз117691 0.0 102132
06:00+9зюз017283 0.0 1021168
09:00+12ссв345933 0.0 10201159
12:00+16в564914 0.0 10171496
15:00+17всв87469 0.0 10161541
18:00+13всв6106331 0.0 1018555
21:00+9вюв247795 0.0 101980
12 мая, ср
ср1200:00+8ю11880 0.0 101811
03:00+7юз11910 0.0 101810
06:00+9з00830 0.0 101884
09:00+15всв34596 0.0 1017945
12:00+19всв55501 0.0 10151302
15:00+19всв54544 0.0 10151162
18:00+16всв35700 0.0 1016358
21:00+11юв22880 0.0 101734